Lid_Strength_Index
4 3 3 3 3 3 3 3 3 3 3 3 3 3 2 2 2 1 2 -0 -0 -2 -0 0 1 1 1 2 2 2 8 8 8 9 6 4 5 4 3 4 4 3 4 3 1
4 4 4 4 4 3 3 3 3 3 3 3 3 3 2 2 2 3 -1 -4 -2 -1 1 2 3 2 3 3 3 5 10 8 5 6 6 5 5 4 5 5 5 4 3 2 2
4 4 4 4 4 4 3 3 3 3 3 3 3 3 2 2 3 4 -2 -2 -1 -1 1 1 2 2 4 3 3 4 8 6 5 4 4 5 5 4 5 6 5 5 4 3 2
4 4 4 4 4 4 4 3 3 4 4 4 3 3 3 2 8 1 -2 -2 -1 -1 1 3 3 5 5 5 3 5 4 4 4 4 4 5 4 5 4 4 3 3 3 3 3
5 5 5 5 4 4 4 4 4 4 4 4 3 3 2 4 5 0 -2 -1 -1 0 2 3 4 5 6 5 4 5 4 4 4 4 4 4 5 5 4 3 2 3 3 3 3
5 5 4 4 4 4 4 4 4 5 4 4 3 3 3 6 2 1 1 -0 1 1 2 3 4 4 5 5 5 4 4 4 4 4 4 5 5 5 4 3 3 3 3 3 3
5 5 5 5 5 5 4 4 5 5 4 3 3 2 4 5 2 2 0 1 0 1 2 3 4 5 5 5 4 4 5 4 4 4 5 4 6 6 4 3 4 4 3 3 3
5 5 5 5 5 5 5 5 5 4 3 3 2 2 5 1 0 2 1 2 1 0 1 1 4 5 5 4 4 5 5 7 5 4 4 5 8 5 4 4 4 4 4 3 3
5 5 5 5 5 5 6 6 5 3 2 2 1 2 5 1 2 1 1 2 2 2 1 1 3 6 6 7 7 6 8 7 7 4 5 6 9 5 4 4 5 4 4 4 3
5 5 5 5 6 6 7 6 4 2 1 1 1 4 3 4 2 1 0 2 3 2 3 4 4 7 7 7 9 8 8 7 8 6 6 7 8 5 4 4 4 4 4 4 4
5 6 6 6 6 7 6 4 4 4 2 4 3 4 3 2 1 2 1 2 3 3 6 5 7 8 8 6 6 6 7 7 6 5 6 7 7 6 5 5 5 4 4 4 3
6 6 6 6 7 7 6 6 6 7 9 6 5 5 4 3 5 3 1 4 5 6 5 6 8 6 6 5 6 6 7 7 6 6 6 7 7 6 5 5 5 4 4 4 3
6 6 6 7 7 6 7 6 5 5 9 7 5 6 5 4 6 5 3 4 6 6 6 7 7 5 6 6 7 6 7 7 7 7 6 7 8 7 5 5 4 4 4 3 3
6 7 7 8 8 7 7 5 5 5 10 8 7 6 5 4 6 4 3 4 5 6 6 6 5 6 6 7 6 8 6 6 7 9 11 6 12 8 6 6 5 5 4 4 3
7 7 8 9 8 8 7 5 6 6 14 7 6 3 4 5 4 4 2 4 6 6 6 7 6 6 7 6 5 7 5 6 6 8 10 8 10 9 6 7 6 5 4 4 3
7 7 8 8 7 6 6 6 6 11 14 8 6 6 6 5 5 4 4 3 4 5 5 6 4 5 6 5 5 5 6 6 6 7 11 9 10 9 9 7 6 5 4 4 3
8 8 8 7 9 6 6 8 12 14 8 9 8 6 6 7 6 5 6 6 7 9 8 6 6 5 5 6 5 6 7 11 11 11 12 7 10 10 6 5 5 4 4 4 3
8 9 7 6 5 6 8 11 15 11 10 7 7 7 8 6 6 6 6 7 6 6 7 9 10 6 5 6 7 7 7 10 14 13 11 7 10 8 5 4 4 3 3 3 3
9 7 7 6 5 6 10 14 13 10 8 8 7 8 8 6 6 7 7 7 6 6 8 9 9 5 5 5 5 7 8 6 9 8 10 9 7 6 5 5 4 4 3 3 3
9 8 8 6 5 7 11 14 11 9 8 8 10 8 9 7 7 7 7 6 6 5 5 6 9 6 5 5 5 6 5 9 8 13 13 10 9 9 7 6 5 4 4 3 3
8 10 6 4 4 8 13 12 11 9 8 9 9 9 8 7 7 7 8 6 5 5 5 6 7 7 6 7 7 7 8 7 7 9 12 12 10 5 6 5 5 4 4 3 3
8 11 5 2 8 9 11 10 10 9 8 9 9 8 8 7 7 7 7 6 4 5 6 5 7 9 8 5 5 6 7 7 10 11 9 10 9 5 4 4 4 4 3 3 2
8 7 3 4 11 9 9 9 9 10 9 9 10 9 8 8 8 7 6 5 5 5 6 5 8 10 9 7 6 7 7 7 7 7 10 11 10 5 4 4 4 4 3 3 2
6 9 5 4 5 7 9 9 10 9 9 9 9 8 9 9 7 8 7 6 4 5 3 4 7 8 10 9 7 8 7 7 7 9 9 9 8 6 5 5 4 4 3 3 2
4 6 4 8 6 6 7 9 10 11 9 8 9 10 10 10 9 9 7 6 5 4 5 5 8 7 7 7 7 7 7 7 8 7 9 8 8 6 5 5 4 3 3 3 3
6 6 4 6 5 7 8 9 10 9 9 11 10 9 8 8 8 9 7 6 6 5 5 5 8 7 8 7 7 8 7 7 7 7 7 7 7 5 4 4 4 3 3 3 3
2 2 4 6 6 7 7 8 8 8 8 7 8 9 8 6 6 5 4 4 5 6 6 6 8 9 11 8 8 10 8 7 7 6 7 8 6 4 5 4 4 4 3 3 3